HEAD-1

Satellite information

Favourite Embed

Satellite Type and Status

PAYLOADIN ORBIT

Key statistics

Satellite HEAD-1 at a glance.

Uptime

2902

Days in orbit

Revolutions

≈ 14.3

Per day

Orbit

SSO

Sun Synchronous Orbit

Inclination

99.0

Latest

Satellite identification and parameters

Extended collection of information and parameters for HEAD-1.

Object identification

Identified? True

Debris? False

Object name: HEAD-1

International designator: 2017-072B

Object number (NORAD): 43011

Object ID (CCSDS): 43011

Country: PEOPLES REPUBLIC OF CHINA (PRC)

Current information (Y/N): Y

RCS size: MEDIUM

Orbital parameters

Period: 100.799 minutes

Inclination: 98.966 deg

SMA: 7174.611 km

Apoapsis: 804.336 km

Periapsis: 788.616 km

RAAN: 305.1379 deg

Eccentricy: 0.00109552

Argument of periapsis: 114.2904 deg

Mean anomaly: 245.9422 deg

Mean motion: 14.28582235 rev/day

Mean motion (dot): 0.00000539 rev/day2

B* drag term: 0.00023331818 1/REarth

Two-line elements (TLE)

Creation date: Oct. 25, 2025, 3:11 a.m.

Reference frame: TEME

Reference center: EARTH

Epoch: Oct. 24, 2025, 11:58 p.m. UTC

TLE line 0: 0 HEAD-1

TLE line 1: 1 43011U 17072B 25297.99912888 .00000539 00000-0 23332-3 0 9998

TLE line 2: 2 43011 98.9660 305.1379 0010955 114.2904 245.9422 14.28582235413778

Live tracking on map

Real-time ground track for satellite HEAD-1.

In-orbit conjunctions

There are no conjunctions computed for HEAD-1, at the moment. Check back to stay up to date, as we update our databases every day.

Go to all conjunctions

Associated space launch

Fengyun-3D (also known as FY-3D) is a polar orbiting meteorological satellite. It is tasked with ocean and ice monitoring, as well as studying atmospheric chemistry and space weather. The satellite is expected to operate for 5 years.

HEAD-1 was lifted into orbit during the mission ‘Long March 4C | Fengyun-3D’, on board a Long March 4C space rocket.

The launch took place on Nov. 14, 2017, 6:35 p.m. from Launch Complex 9.

For more information about the launch, click the button.

Launch to space Long March 4C | Fengyun-3D
Long March 4C | Fengyun-3D

Agency: N/A

Status: Launch Successful

Launch date: Nov. 14, 2017, 6:35 p.m. UTC

Rocket: Long March 4C

Launch pad: Launch Complex 9

Location: Taiyuan Satellite Launch Center, People's Republic of China

...

Latest news about this satellite

There are no fresh news available about this satellite. Check back as we update our databases every day.


Newsletter sign-up

Weekly statistics, charts and insights to help you stay on top of the space industry.